Flag for Germany Weather past 2 weeks in Güstrow, Mecklenburg-Western Pomerania, Germany

Now
37 °F

Passing clouds.


Feels Like: 29 °F
Forecast: 34 / 46 °F
Wind: 13 mph from North

Location: Laage

Current Time: Mar 5, 2015 at 3:37:12 AM

Latest Report: Mar 5, 2015 at 2:20 AM


Visibility: N/A

Pressure: 30.30 "Hg

Humidity: 87%

Dew point: 34 °F

Location of GüstrowLocation

Historic Weather in Güstrow — Graph

°F

Güstrow temperature yesterday

Maximum temperature yesterday: 43 °F (at 2:20 PM)
Minimum temperature yesterday: 34 °F (at 12:20 AM)
Average temperature yesterday: 37 °F

Past Weeks' High & Low Weather Summary

 TemperatureHumidityPressure
High48 °F (Feb 26, 1:20 PM)100% (Feb 18, 2:20 AM)30.66 "Hg (Feb 18, 2:20 AM)
Low28 °F (Feb 25, 11:20 PM)43% (Feb 19, 1:20 PM)29.24 "Hg (Feb 21, 2:20 PM)
Average38 °F82%29.83 "Hg
* Reported Feb 18 2:20 AM — Mar 5 2:20 AM, Güstrow, Weather by CustomWeather, © 2015

Note: Actual official high and low records may vary slightly from our data, if they occured in-between our weather recording intervals... More about our weather records

Advertising

Güstrow weather history for previous 24 hours

 ConditionsComfort  
Time TempWeatherWind HumidityBarometerVisibility
2:20 AM
Thu, Mar 5
37 °FPassing clouds.13 mph87%30.30 "HgN/A
1:20 AM37 °FPassing clouds.15 mph93%30.24 "HgN/A
12:20 AM37 °FPassing clouds.12 mph93%30.21 "HgN/A
11:20 PM
Wed, Mar 4
37 °FLight rain. Partly cloudy.5 mph100%30.15 "Hg4 mi
10:20 PM37 °FPartly cloudy.8 mph93%30.12 "Hg4 mi
9:20 PM37 °FPassing clouds.7 mph93%30.09 "Hg5 mi
8:20 PM37 °FPassing clouds.8 mph93%30.07 "HgN/A
7:20 PM37 °FPassing clouds.8 mph87%30.07 "HgN/A
6:20 PM37 °FPassing clouds.8 mph87%30.07 "HgN/A
5:20 PM41 °FPartly sunny.12 mph81%30.04 "HgN/A
4:20 PM43 °FPartly sunny.15 mph76%30.04 "HgN/A
3:20 PM43 °FScattered clouds.12 mph71%30.04 "HgN/A
2:20 PM43 °FPartly sunny.14 mph71%30.04 "HgN/A
1:20 PM41 °FPartly sunny.14 mph81%30.04 "HgN/A
12:59 PM37 °FBroken clouds.13 mph93%30.04 "HgN/A
12:20 PM37 °FSprinkles. Partly sunny.14 mph87%30.04 "Hg5 mi
11:20 AM39 °FScattered showers. Partly sunny.14 mph81%30.01 "HgN/A
10:20 AM37 °FPartly sunny.13 mph87%30.01 "HgN/A
9:20 AM36 °FPassing clouds.10 mph87%30.01 "HgN/A
8:20 AM34 °FPassing clouds.8 mph93%29.98 "HgN/A
7:20 AM34 °FPassing clouds.8 mph93%29.98 "HgN/A
6:20 AM34 °FPassing clouds.10 mph93%29.95 "HgN/A
5:20 AM34 °FPassing clouds.10 mph93%29.92 "HgN/A
4:20 AM34 °FPassing clouds.14 mph93%29.92 "HgN/A
3:20 AM36 °FPassing clouds.15 mph87%29.89 "HgN/A
Weather by CustomWeather, © 2015

See weather overviewHow to use our weather pages